Location: Härggis
(46.9540°N, 8.4897°E)
Time: 22:20:39
(UTC+00:00)

NOSS 0 Rocket - Pass Details

Date: 27 May 2022
Orbit: 936 x 954 km, 70.0° (Epoch: 04 July)

Event Time Altitude Azimuth Distance (km) Brightness Sun altitude
Exits shadow 00:45:01 25° 238° (WSW) 1,809 5.0 -19.3°
Maximum altitude 00:48:32 54° 304° (NW) 1,147 4.4 -19.1°
Drops below altitude 10° 00:54:39 10° 22° (NNE) 2,689 7.6 -18.7°
Sets 00:57:16 0° 27° (NNE) 3,637 8.7 -18.6°
